COSMOS 1275 DEB

Satellite information

Favourite Embed

Satellite Type and Status

DEBRISIN ORBIT

Key statistics

Satellite COSMOS 1275 DEB at a glance.

Uptime

16210

Days in orbit

Revolutions

≈ 14.3

Per day

Orbit

LEO

Low Earth Orbit

Inclination

82.9

Latest

Satellite identification and parameters

Extended collection of information and parameters for COSMOS 1275 DEB.

Object identification

Identified? True

Debris? True

Object name: COSMOS 1275 DEB

International designator: 1981-053AL

Object number (NORAD): 12692

Object ID (CCSDS): 12692

Country: COMMONWEALTH OF INDEPENDENT STATES (CIS)

Current information (Y/N): Y

RCS size: MEDIUM

Orbital parameters

Period: 100.507 minutes

Inclination: 82.8975 deg

SMA: 7160.757 km

Apoapsis: 832.272 km

Periapsis: 732.971 km

RAAN: 230.357 deg

Eccentricy: 0.00693364

Argument of periapsis: 24.4526 deg

Mean anomaly: 335.9924 deg

Mean motion: 14.32730153 rev/day

Mean motion (dot): 0.00004298 rev/day2

B* drag term: 0.0015314947 1/REarth

Two-line elements (TLE)

Creation date: Oct. 21, 2025, 3:26 a.m.

Reference frame: TEME

Reference center: EARTH

Epoch: Oct. 20, 2025, 8:37 p.m. UTC

TLE line 0: 0 COSMOS 1275 DEB

TLE line 1: 1 12692U 81053AL 25293.85916556 .00004298 00000-0 15315-2 0 9993

TLE line 2: 2 12692 82.8975 230.3570 0069336 24.4526 335.9924 14.32730153283738

Live tracking on map

Real-time ground track for satellite COSMOS 1275 DEB.

In-orbit conjunctions

A list of the most updated potential collisions computed for object COSMOS 1275 DEB.

Target Orbit TCA Probability of collision Miss distance Type
SL-3 R/B LEO 2025-01-23 22:35:04 0.0001334895 667.0 (m) ROCKET BODY
FENGYUN 1C DEB SSO 2024-12-14 18:32:29 0.0001551079 227.0 (m) DEBRIS

Associated space launch

Navigation satellite providing location information for the Tsiklon-B navigation system

COSMOS 1275 DEB was lifted into orbit during the mission ‘Kosmos-3M | Parus 27’, on board a Kosmos-3M space rocket.

The launch took place on June 4, 1981, 3:41 p.m. from 132/2.

For more information about the launch, click the button.

Launch to space Kosmos-3M | Parus 27
Kosmos-3M | Parus 27

Agency: N/A

Status: Launch Successful

Launch date: June 4, 1981, 3:41 p.m. UTC

Rocket: Kosmos-3M

Launch pad: 132/2

Location: Plesetsk Cosmodrome, Russian Federation

...

Latest news about this satellite

There are no fresh news available about this satellite. Check back as we update our databases every day.


Newsletter sign-up

Weekly statistics, charts and insights to help you stay on top of the space industry.